Weather History for Falls City, NE

Change the Weather History Date:

Thursday, April 4, 2013

  Actual Average Record
Temperature  
Mean Temperature 46 °F -  
Max Temperature 66 °F 59 °F 81 °F (1967)
Min Temperature 25 °F 34 °F 21 °F (1990)
Degree Days  
Heating Degree Days 20    
Moisture  
Dew Point 29 °F    
Average Humidity 54    
Maximum Humidity 88    
Minimum Humidity 28    
Precipitation  
Precipitation 0.00 in - - ()
Sea Level Pressure  
Sea Level Pressure 30.15 in    
Wind  
Wind Speed 3 mph (WNW)    
Max Wind Speed 13 mph    
Max Gust Speed 16 mph    
Visibility 10 miles    
Events      
Averages and records for this station are not official NWS values.
T = Trace of Precipitation, MM = Missing Value Source: NWS Daily Summary

Daily Weather History Graph

Daily Weather History Graph

Search for Another Location

Airport:

Trip Planner

Search our weather history database for the weather conditions in past years. The results will help you decide how hot, cold, wet, or windy it might be!

Date:

Astronomy

Apr. 04, 2013 Rise Set
Actual Time 7:01 AM CDT 7:50 PM CDT
Civil Twilight 6:33 AM CDT 8:17 PM CDT
Nautical Twilight 6:01 AM CDT 8:50 PM CDT
Astronomical Twilight 5:27 AM CDT 9:24 PM CDT
Moon 3:28 AM CDT (4/4) 2:09 PM CDT (4/4)
Length of Visible Light 13h 43m
Length of Day
12h 49m
Waning Crescent, 33% of the Moon is Illuminated
Apr 4
Waning Crescent
Apr 10
New
Apr 18
First Quarter
Apr 25
Full
May 2
Last Quarter

Hourly Weather History & Observations

Time (CDT) Temp. Windchill Dew Point Humidity Pressure Visibility Wind Dir Wind Speed Gust Speed Precip Events Conditions
12:53 AM 37.0 °F 33.3 °F 24.1 °F 59% 30.25 in 10.0 mi SSW 4.6 mph - N/A   Clear
1:53 AM 30.9 °F - 23.0 °F 72% 30.24 in 10.0 mi Calm Calm - N/A   Clear
2:53 AM 30.0 °F - 24.1 °F 79% 30.23 in 10.0 mi Calm Calm - N/A   Clear
3:53 AM 30.0 °F - 24.1 °F 79% 30.22 in 10.0 mi Calm Calm - N/A   Clear
4:53 AM 28.9 °F - 23.0 °F 78% 30.22 in 10.0 mi Calm Calm - N/A   Clear
5:53 AM 25.0 °F - 21.0 °F 85% 30.22 in 8.0 mi Calm Calm - N/A   Clear
6:53 AM 27.0 °F - 21.9 °F 81% 30.22 in 9.0 mi Calm Calm - N/A   Clear
7:53 AM 28.0 °F - 25.0 °F 88% 30.22 in 7.0 mi Calm Calm - N/A   Clear
8:53 AM 37.0 °F - 28.0 °F 70% 30.21 in 8.0 mi Calm Calm - N/A   Clear
9:53 AM 44.1 °F - 30.0 °F 58% 30.20 in 10.0 mi Calm Calm - N/A   Clear
10:53 AM 50.0 °F - 27.0 °F 41% 30.18 in 10.0 mi West 9.2 mph - N/A   Clear
11:53 AM 54.0 °F - 28.9 °F 38% 30.17 in 10.0 mi West 6.9 mph - N/A   Clear
12:53 PM 57.0 °F - 30.9 °F 37% 30.14 in 10.0 mi WNW 5.8 mph - N/A   Clear
1:53 PM 60.1 °F - 32.0 °F 35% 30.12 in 10.0 mi WNW 8.1 mph - N/A   Clear
2:53 PM 63.0 °F - 32.0 °F 31% 30.09 in 10.0 mi WNW 8.1 mph 16.1 mph N/A   Clear
3:53 PM 64.0 °F - 32.0 °F 30% 30.06 in 10.0 mi NNW 5.8 mph - N/A   Clear
4:53 PM 66.0 °F - 32.0 °F 28% 30.06 in 10.0 mi WNW 12.7 mph 16.1 mph N/A   Clear
5:53 PM 64.9 °F - 33.1 °F 31% 30.05 in 10.0 mi Variable 4.6 mph - N/A   Clear
6:53 PM 63.0 °F - 34.0 °F 34% 30.06 in 10.0 mi WNW 3.5 mph - N/A   Clear
7:53 PM 60.1 °F - 34.0 °F 38% 30.06 in 10.0 mi Calm Calm - N/A   Clear
8:53 PM 55.0 °F - 33.1 °F 43% 30.07 in 10.0 mi Calm Calm - N/A   Clear
9:53 PM 53.1 °F - 34.0 °F 48% 30.08 in 10.0 mi Calm Calm - N/A   Clear
10:53 PM 46.9 °F - 33.1 °F 59% 30.09 in 10.0 mi NNW 5.8 mph - N/A   Clear
11:53 PM 50.0 °F - 35.1 °F 57% 30.10 in 10.0 mi NE 5.8 mph - N/A   Clear